Location: Chandolas
(44.4033°N, 4.2533°E)
Time: 01:01:27
(UTC+00:00)

USA 234 - Pass Details

Date: 15 November 2019
Orbit: 1099 x 1108 km, 123.0° (Epoch: 30 November)

Event Time Altitude Azimuth Distance (km) Brightness Sun altitude
Rises 03:38:54 0° 63° (ENE) 3,919 7.1 -32.0°
Reaches altitude 10° 03:41:42 10° 53° (NE) 2,961 6.2 -31.5°
Maximum altitude 03:47:09 30° 357° (N) 1,882 4.4 -30.5°
Enters shadow 03:47:40 29° 348° (NNW) 1,895 4.4 -30.5°
